[[[{"header":{"parameterUnit":"kt","parameterCategory":2,"dx":1,"dy":1,"la1":30.253999710083008,"la2":30.299108505249023,"lo1":-89.0895004272461,"lo2":-89.04439544677734,"nx":28,"ny":28,"refTime":"2022-09-30T21:00:00:Z","depth":0,"parameterNumber":1,"parameterNumberName":"U-component_of_WINDS"},"data":[2.2513,2.2475,2.2457,2.2404,2.2378,2.2338,2.2318,2.2289,2.2261,2.2209,2.2175,2.2151,2.2113,2.2066,2.2027,2.2017,2.2001,2.2001,2.1988,2.2005,2.2006,2.2007,2.2015,2.1999,2.1999,2.1973,2.1973,2.1972,2.2527,2.2502,2.247,2.2425,2.2396,2.2385,2.2347,2.2323,2.2287,2.2251,2.2217,2.2169,2.2128,2.2089,2.2045,2.2024,2.2014,2.2013,2.2013,2.2007,2.2025,2.2034,2.2022,2.2022,2.2022,2.2022,2.2022,2.2022,2.2549,2.2527,2.2489,2.2453,2.2425,2.2395,2.237,2.2341,2.2307,2.2261,2.2244,2.2201,2.216,2.2097,2.207,2.2035,2.2032,2.2023,2.2021,2.2019,2.202,2.2058,2.2026,2.2026,2.2026,2.2026,2.2026,0,2.2558,2.2545,2.2512,2.2473,2.2445,2.2413,2.238,2.2364,2.2325,2.2298,2.2257,2.2229,2.2174,2.2132,2.2086,2.2059,2.204,2.2037,2.203,2.2038,2.2051,2.2042,2.2071,2.2037,2.2037,2.2037,2.2037,2.2037,2.2577,2.2554,2.2505,2.2485,2.2462,2.2429,2.2404,2.2372,2.2347,2.23,2.2281,2.2239,2.2203,2.2138,2.2101,2.2058,2.2049,2.2038,2.2042,2.2051,2.2046,2.2048,2.2044,2.2037,2.2037,2.2037,2.2037,0,2.2589,2.2559,2.2517,2.247,2.2457,2.2434,2.2393,2.2368,2.2342,2.2304,2.2293,2.2251,2.221,2.2175,2.212,2.2102,2.2059,2.2051,2.2073,2.2069,2.2055,2.2056,2.2017,2.2009,2.2028,2.2028,2.2028,0,2.2593,2.2563,2.2519,2.2496,2.2461,2.243,2.2396,2.237,2.2335,2.2305,2.2281,2.2253,2.2212,2.2178,2.2152,2.211,2.21,2.2084,2.2077,2.2085,2.2087,2.2069,2.2069,2.2064,2.2064,2.2064,2.2064,0,2.2614,2.2556,2.2518,2.25,2.2446,2.2429,2.2405,2.2365,2.2341,2.2304,2.2287,2.2246,2.2222,2.2189,2.2156,2.216,2.2105,2.2104,2.2088,2.2089,2.2076,2.2077,2.2053,2.2065,2.2065,2.2065,2.2065,0,2.2611,2.2577,2.2528,2.2482,2.2468,2.2443,2.2401,2.2371,2.2331,2.2313,2.2283,2.2262,2.2224,2.2225,2.2171,2.2186,2.2163,2.2144,2.2142,2.2135,2.2137,2.2126,2.2109,2.2104,2.2131,2.2131,2.2132,0,2.2643,2.2586,2.2559,2.2512,2.248,2.2455,2.2426,2.2392,2.2366,2.2334,2.2305,2.2267,2.2261,2.2244,2.2222,2.219,2.2171,2.2191,2.2141,2.2139,2.2152,2.2136,2.2141,2.2117,2.2138,2.2138,2.2137,0,2.2664,2.2601,2.2594,2.2571,2.2522,2.2495,2.2462,2.2419,2.2399,2.2363,2.2333,2.228,2.2272,2.2244,2.2222,2.2201,2.2182,2.2195,2.2193,2.2193,2.2139,2.2145,2.2141,2.2172,2.2171,2.217,2.2142,0,2.2665,2.2632,2.2614,2.2565,2.2539,2.2508,2.2472,2.2449,2.2431,2.2405,2.236,2.2321,2.2275,2.2261,2.2243,2.2207,2.2207,2.2199,2.2195,2.2186,2.2175,2.2171,2.2214,2.2213,2.2213,2.2213,0,0,2.2702,2.2655,2.2626,2.2594,2.257,2.2544,2.2514,2.2487,2.2433,2.2416,2.2414,2.2334,2.2301,2.225,2.2244,2.2226,2.2215,2.222,2.2191,2.2189,2.2186,2.2176,2.2173,2.2212,2.2212,2.2212,2.2212,0,2.2695,2.2668,2.2639,2.2611,2.2568,2.2542,2.2535,2.2487,2.2468,2.2425,2.2402,2.2371,2.2306,2.2275,2.225,2.2226,2.2208,2.2214,2.2214,2.219,2.2188,2.2186,2.2176,2.2173,2.2211,2.2212,2.2212,0,2.2709,2.2675,2.2658,2.2604,2.2575,2.2542,2.2531,2.2497,2.2472,2.2442,2.24,2.2372,2.2327,2.2284,2.2263,2.226,2.2205,2.2216,2.2216,2.2212,2.2187,2.2185,2.2183,2.2209,2.2209,2.2209,0,0,2.2707,2.2677,2.2629,2.2599,2.2583,2.2544,2.2522,2.2502,2.2464,2.2449,2.2413,2.2375,2.2337,2.2312,2.2275,2.2233,2.222,2.2217,2.2217,2.2217,2.2214,2.2189,2.2186,2.221,2.221,2.221,0,0,2.2705,2.265,2.264,2.2601,2.2566,2.2516,2.2498,2.2482,2.2446,2.2445,2.2407,2.2395,2.2354,2.2327,2.234,2.2272,2.227,2.2266,2.2291,2.2291,2.2291,2.2297,2.232,0,0,0,0,0,2.268,2.2658,2.2649,2.2637,2.2567,2.2521,2.2512,2.2481,2.2481,2.2467,2.2435,2.2419,2.2326,2.2336,2.2324,2.2309,2.2217,2.2216,2.2215,2.2237,2.2237,2.2237,0,0,0,0,0,0,2.2675,2.2661,2.2649,2.2598,2.2582,2.2522,2.2514,2.2505,2.2482,2.2479,2.2426,2.2417,2.2388,2.234,2.233,2.2317,2.2324,2.2217,2.2216,2.2215,2.2237,2.2237,2.2237,0,0,0,0,0,2.2671,2.266,2.2556,2.2598,2.2584,2.2539,2.2515,2.2507,2.2488,2.2438,2.2429,2.2467,2.2389,2.2378,2.2334,2.2323,2.2331,2.2327,2.2216,2.2215,2.2214,2.2237,0,0,0,0,0,0,2.2668,2.2651,2.2552,2.2547,2.2605,2.2541,2.2531,2.2509,2.2447,2.2439,2.2478,2.2477,2.2389,2.238,2.2371,2.2326,2.2337,2.2333,2.2331,2.2215,2.2215,2.2214,0,0,0,0,0,0,2.2657,2.2647,2.255,2.256,2.2555,2.2544,2.2535,2.2492,2.2447,2.2491,2.2488,2.2478,2.2401,2.2382,2.2375,2.231,2.2342,2.2338,2.2335,2.2333,2.2215,2.2214,0,0,0,0,0,0,2.2652,2.2643,2.2561,2.2557,2.2553,2.2489,2.2506,2.2435,2.2459,2.2494,2.246,2.246,2.2403,2.2395,2.2378,2.2316,2.2312,2.2341,2.2339,2.2337,2.2336,0,0,0,0,0,0,0,2.2648,2.2716,2.2585,2.2555,2.2552,2.2496,2.2495,2.2493,2.2459,2.2459,2.246,2.246,2.2363,2.2359,2.2355,2.2321,0,0,2.2342,2.234,0,0,0,0,0,0,0,0,2.2719,2.2717,2.2585,2.2584,2.2583,2.2496,2.2495,2.2493,2.2459,2.2459,2.2459,2.246,2.2362,2.2359,2.2355,0,0,0,0,0,0,0,0,0,0,0,0,0,0,0,2.2585,2.2584,0,2.2496,2.2495,2.2494,2.2459,2.2459,2.2459,2.246,2.2361,2.2359,2.2356,0,0,0,0,0,0,0,0,0,0,0,0,0,0,0,0,0,0,0,0,0,0,0,0,0,0,0,0,0,0,0,0,0,0,0,0,0,0,0,0,0,0,0,0,0,0,0,0,0,0,0,0,0,0,0,0,0,0,0,0,0,0,0,0,0,0,0,0,0]}],[{"header":{"parameterUnit":"kt","parameterCategory":2,"dx":1,"dy":1,"la1":30.253999710083008,"la2":30.299108505249023,"lo1":-89.0895004272461,"lo2":-89.04439544677734,"nx":28,"ny":28,"refTime":"2022-09-30T21:00:00:Z","depth":0,"parameterNumber":2,"parameterNumberName":"V-component_of_WINDS"},"data":[-8.9126,-8.9376,-8.9426,-8.9734,-8.9831,-9.0049,-9.0142,-9.0268,-9.038,-9.0645,-9.0805,-9.0879,-9.1008,-9.121,-9.1384,-9.1413,-9.1483,-9.1536,-9.156,-9.128,-9.1245,-9.1211,-9.1155,-9.1551,-9.1551,-9.1842,-9.1845,-9.1847,-8.8916,-8.9014,-8.9192,-8.9398,-8.955,-8.9529,-8.969,-8.9818,-9.0013,-9.0153,-9.0314,-9.055,-9.0742,-9.0855,-9.1047,-9.1163,-9.1163,-9.1212,-9.1203,-9.1224,-9.0927,-9.0867,-9.1209,-9.1209,-9.1209,-9.1209,-9.1208,-9.1208,-8.8547,-8.8695,-8.8849,-8.9042,-8.9159,-8.9296,-8.9445,-8.9533,-8.9706,-8.9915,-8.9938,-9.0159,-9.0307,-9.0562,-9.0658,-9.0831,-9.0785,-9.0853,-9.087,-9.0886,-9.0897,-9.047,-9.0865,-9.0865,-9.0864,-9.0863,-9.0863,0,-8.8292,-8.8323,-8.8497,-8.8686,-8.883,-8.898,-8.9126,-8.922,-8.9301,-8.944,-8.9646,-8.9772,-9.0021,-9.0218,-9.0408,-9.0496,-9.0485,-9.049,-9.0536,-9.0528,-9.0496,-9.0516,-9.0028,-9.0477,-9.0474,-9.0472,-9.047,-9.0469,-8.7922,-8.809,-8.8274,-8.8389,-8.8482,-8.8667,-8.8787,-8.8846,-8.897,-8.9157,-8.9284,-8.9484,-8.9646,-8.9965,-9.0063,-9.0248,-9.0245,-9.0411,-9.0272,-9.0258,-9.0247,-9.0236,-9.0253,-9.0436,-9.044,-9.0444,-9.0447,0,-8.7709,-8.7789,-8.8065,-8.823,-8.8277,-8.8448,-8.8589,-8.8739,-8.8807,-8.9023,-8.9076,-8.9183,-8.9383,-8.9455,-8.9697,-8.9728,-9.0009,-9.0001,-8.9958,-8.9961,-9.0116,-9.01,-9.0611,-9.068,-9.0271,-9.0275,-9.0278,0,-8.7425,-8.7643,-8.7749,-8.7905,-8.8148,-8.8201,-8.844,-8.8522,-8.8651,-8.8822,-8.8823,-8.8982,-8.9049,-8.9218,-8.9265,-8.9507,-8.9553,-8.9591,-8.96,-8.9591,-8.9586,-8.9656,-8.9636,-8.9616,-8.9613,-8.9611,-8.9609,0,-8.7083,-8.7395,-8.7648,-8.7732,-8.793,-8.8047,-8.8134,-8.8279,-8.8395,-8.8558,-8.8634,-8.8819,-8.892,-8.9063,-8.912,-8.9024,-8.9419,-8.9298,-8.9457,-8.9456,-8.9541,-8.9534,-8.9969,-8.9605,-8.9605,-8.9604,-8.9603,0,-8.6866,-8.7031,-8.7387,-8.7551,-8.763,-8.7796,-8.7983,-8.8142,-8.8295,-8.8335,-8.8463,-8.8472,-8.8691,-8.8565,-8.8867,-8.8724,-8.8823,-8.888,-8.8892,-8.8916,-8.8773,-8.9008,-8.9415,-8.946,-8.8938,-8.8932,-8.8927,0,-8.6452,-8.6832,-8.6881,-8.7217,-8.7402,-8.7391,-8.7577,-8.7712,-8.7781,-8.7947,-8.8023,-8.8211,-8.8133,-8.8201,-8.8342,-8.8427,-8.8612,-8.8404,-8.8639,-8.8647,-8.8599,-8.8975,-8.9017,-8.9318,-8.8857,-8.8865,-8.887,0,-8.6141,-8.6381,-8.6437,-8.6535,-8.6723,-8.6878,-8.7091,-8.729,-8.7398,-8.755,-8.7729,-8.7995,-8.7947,-8.806,-8.8086,-8.8228,-8.8488,-8.8157,-8.8161,-8.8214,-8.8828,-8.8867,-8.8918,-8.8474,-8.8482,-8.8489,-8.8814,0,-8.5794,-8.5994,-8.615,-8.6365,-8.6496,-8.671,-8.6788,-8.6915,-8.6928,-8.6996,-8.7261,-8.739,-8.7591,-8.7667,-8.768,-8.7982,-8.7943,-8.7889,-8.7771,-8.8017,-8.8126,-8.8171,-8.7603,-8.76,-8.7597,-8.7595,0,0,-8.5378,-8.5666,-8.5713,-8.5922,-8.6036,-8.6021,-8.6243,-8.6351,-8.657,-8.6648,-8.6584,-8.6978,-8.7085,-8.7398,-8.7481,-8.7562,-8.7623,-8.7534,-8.79,-8.7933,-8.7965,-8.808,-8.8125,-8.759,-8.7589,-8.7589,-8.7588,0,-8.5267,-8.538,-8.5599,-8.5714,-8.5886,-8.5948,-8.6,-8.6167,-8.6221,-8.6481,-8.6463,-8.6631,-8.6944,-8.706,-8.716,-8.7498,-8.7475,-8.7554,-8.771,-8.7871,-8.7908,-8.7941,-8.8062,-8.8104,-8.7582,-8.7582,-8.7582,0,-8.4974,-8.5098,-8.5212,-8.547,-8.5582,-8.5773,-8.5669,-8.5875,-8.6016,-8.5987,-8.6245,-8.6327,-8.6489,-8.6775,-8.6905,-8.685,-8.7336,-8.7196,-8.7214,-8.723,-8.739,-8.7434,-8.7474,-8.6953,-8.695,-8.6948,0,0,-8.4867,-8.5054,-8.5204,-8.5452,-8.5524,-8.5619,-8.5728,-8.5752,-8.5898,-8.5957,-8.6062,-8.6204,-8.6386,-8.6505,-8.668,-8.6983,-8.702,-8.7115,-8.7145,-8.7169,-8.7198,-8.7364,-8.7408,-8.6938,-8.6938,-8.6938,0,0,-8.4816,-8.5,-8.4988,-8.5286,-8.5426,-8.559,-8.5738,-8.5725,-8.5891,-8.5875,-8.5923,-8.5963,-8.6232,-8.6312,-8.6177,-8.6639,-8.6521,-8.6555,-8.6576,-8.6615,-8.6644,-8.6619,-8.6088,0,0,0,0,0,-8.4743,-8.4977,-8.4964,-8.5026,-8.5351,-8.5597,-8.5639,-8.5685,-8.5601,-8.5717,-8.5803,-8.5771,-8.6249,-8.6131,-8.619,-8.634,-8.6817,-8.6838,-8.6858,-8.6958,-8.6997,-8.7031,0,0,0,0,0,0,-8.4767,-8.4842,-8.4958,-8.513,-8.5204,-8.5589,-8.5457,-8.5476,-8.559,-8.558,-8.5755,-8.5776,-8.5819,-8.6104,-8.6157,-8.6298,-8.607,-8.6825,-8.6843,-8.686,-8.6971,-8.7004,-8.7031,0,0,0,0,0,-8.4787,-8.4847,-8.5357,-8.5127,-8.5191,-8.5309,-8.5448,-8.5463,-8.5552,-8.5685,-8.5704,-8.5577,-8.5822,-8.587,-8.6135,-8.6273,-8.6034,-8.6053,-8.6837,-8.6851,-8.6864,-8.6987,0,0,0,0,0,0,-8.4802,-8.4863,-8.5371,-8.5392,-8.5042,-8.5288,-8.5329,-8.5452,-8.565,-8.5672,-8.5507,-8.5497,-8.5827,-8.5863,-8.59,-8.6262,-8.6004,-8.6024,-8.6036,-8.6848,-8.6859,-8.6869,0,0,0,0,0,0,-8.483,-8.4881,-8.5382,-8.5272,-8.5281,-8.5269,-8.5305,-8.5537,-8.5652,-8.5461,-8.5459,-8.55,-8.5771,-8.586,-8.5888,-8.6248,-8.5981,-8.6,-8.6013,-8.6022,-8.6857,-8.6866,0,0,0,0,0,0,-8.4852,-8.4896,-8.5266,-8.5273,-8.5281,-8.5521,-8.5474,-8.5804,-8.556,-8.5452,-8.5539,-8.5529,-8.5769,-8.5798,-8.588,-8.6228,-8.6243,-8.5982,-8.5995,-8.6004,-8.601,0,0,0,0,0,0,0,-8.487,-8.457,-8.5246,-8.5275,-8.5281,-8.5587,-8.5593,-8.5599,-8.5558,-8.5549,-8.5541,-8.5533,-8.5872,-8.5893,-8.5914,-8.6212,0,0,-8.598,-8.5989,0,0,0,0,0,0,0,0,-8.4552,-8.4565,-8.5247,-8.5251,-8.5255,-8.5588,-8.5593,-8.5598,-8.5556,-8.5549,-8.5543,-8.5536,-8.5878,-8.5895,-8.5912,0,0,0,0,0,0,0,0,0,0,0,0,0,0,0,-8.5247,-8.5251,0,-8.5589,-8.5593,-8.5597,-8.5555,-8.555,-8.5544,-8.5539,-8.5883,-8.5897,-8.5911,0,0,0,0,0,0,0,0,0,0,0,0,0,0,0,0,0,0,0,0,0,0,0,0,0,0,0,0,0,0,0,0,0,0,0,0,0,0,0,0,0,0,0,0,0,0,0,0,0,0,0,0,0,0,0,0,0,0,0,0,0,0,0,0,0,0,0,0,0]}]]]